Time,TemperatureF,DewpointF,PressureIn,WindDirection,WindDirectionDegrees,WindSpeedMPH,WindSpeedGustMPH,Humidity,HourlyPrecipIn,Conditions,Clouds,dailyrainin,SoftwareType,DateUTC
2013-05-20 00:12:00,57.0,55.0,30.26,SSE,160,16.0,18.0,94,-99.99,,,-99.99,,2013-05-20 04:12:00,
2013-05-20 00:22:00,57.0,55.0,30.26,SSE,160,16.0,18.0,94,-99.99,,,-99.99,,2013-05-20 04:22:00,
2013-05-20 00:33:00,57.0,55.0,30.26,SSE,160,16.0,18.0,94,-99.99,,,-99.99,,2013-05-20 04:33:00,
2013-05-20 00:42:00,57.0,55.0,30.26,SSE,160,16.0,18.0,94,-99.99,,,-99.99,,2013-05-20 04:42:00,
2013-05-20 00:50:00,56.0,55.0,30.23,SSE,160,13.0,16.0,98,-99.99,,,-99.99,,2013-05-20 04:50:00,
2013-05-20 01:11:00,56.0,55.0,30.23,SSE,160,13.0,16.0,98,-99.99,,,-99.99,,2013-05-20 05:11:00,
2013-05-20 01:21:00,56.0,55.0,30.23,SSE,160,13.0,16.0,98,-99.99,,,-99.99,,2013-05-20 05:21:00,
2013-05-20 01:32:00,56.0,55.0,30.23,SSE,160,13.0,16.0,98,-99.99,,,-99.99,,2013-05-20 05:32:00,
2013-05-20 01:42:00,56.0,55.0,30.23,SSE,160,13.0,16.0,98,-99.99,,,-99.99,,2013-05-20 05:42:00,
2013-05-20 01:50:00,56.0,56.0,30.20,South,170,18.0,20.0,100,-99.99,,,-99.99,,2013-05-20 05:50:00,
2013-05-20 02:21:00,56.0,56.0,30.20,South,170,18.0,20.0,100,-99.99,,,-99.99,,2013-05-20 06:21:00,
2013-05-20 02:31:00,56.0,56.0,30.20,South,170,18.0,20.0,100,-99.99,,,-99.99,,2013-05-20 06:31:00,
2013-05-20 02:41:00,56.0,56.0,30.20,South,170,18.0,20.0,100,-99.99,,,-99.99,,2013-05-20 06:41:00,
2013-05-20 02:50:00,56.0,56.0,30.16,South,170,18.0,22.0,100,-99.99,,,-99.99,,2013-05-20 06:50:00,
2013-05-20 03:11:00,56.0,56.0,30.16,South,170,18.0,22.0,100,-99.99,,,-99.99,,2013-05-20 07:11:00,
2013-05-20 03:21:00,56.0,56.0,30.16,South,170,18.0,22.0,100,-99.99,,,-99.99,,2013-05-20 07:21:00,
2013-05-20 03:32:00,56.0,56.0,30.16,South,170,18.0,22.0,100,-99.99,,,-99.99,,2013-05-20 07:32:00,
2013-05-20 03:41:00,56.0,56.0,30.16,South,170,18.0,22.0,100,-99.99,,,-99.99,,2013-05-20 07:41:00,
2013-05-20 03:50:00,57.0,57.0,30.13,South,170,16.0,18.0,100,-99.99,,,-99.99,,2013-05-20 07:50:00,
2013-05-20 04:21:00,57.0,57.0,30.13,South,170,16.0,18.0,100,-99.99,,,-99.99,,2013-05-20 08:21:00,
2013-05-20 04:31:00,57.0,57.0,30.13,South,170,16.0,18.0,100,-99.99,,,-99.99,,2013-05-20 08:31:00,
2013-05-20 04:41:00,57.0,57.0,30.13,South,170,16.0,18.0,100,-99.99,,,-99.99,,2013-05-20 08:41:00,
2013-05-20 04:50:00,57.0,57.0,30.10,South,180,18.0,22.0,100,-99.99,,,-99.99,,2013-05-20 08:50:00,
2013-05-20 05:12:00,57.0,57.0,30.10,South,180,18.0,22.0,100,-99.99,,,-99.99,,2013-05-20 09:12:00,
2013-05-20 05:21:00,57.0,57.0,30.10,South,180,18.0,22.0,100,-99.99,,,-99.99,,2013-05-20 09:21:00,
2013-05-20 05:32:00,57.0,57.0,30.10,South,180,18.0,22.0,100,-99.99,,,-99.99,,2013-05-20 09:32:00,
2013-05-20 05:42:00,57.0,57.0,30.10,South,180,18.0,22.0,100,-99.99,,,-99.99,,2013-05-20 09:42:00,
2013-05-20 05:50:00,57.0,57.0,30.10,SSW,200,18.0,20.0,100,-99.99,,,-99.99,,2013-05-20 09:50:00,
2013-05-20 06:22:00,57.0,57.0,30.10,SSW,200,18.0,20.0,100,-99.99,,,-99.99,,2013-05-20 10:22:00,
2013-05-20 06:32:00,57.0,57.0,30.10,SSW,200,18.0,20.0,100,-99.99,,,-99.99,,2013-05-20 10:32:00,
2013-05-20 06:41:00,57.0,57.0,30.10,SSW,200,18.0,20.0,100,-99.99,,,-99.99,,2013-05-20 10:41:00,
2013-05-20 06:50:00,57.0,57.0,30.09,SSW,210,16.0,20.0,100,-99.99,,,-99.99,,2013-05-20 10:50:00,
2013-05-20 07:12:00,57.0,57.0,30.09,SSW,210,16.0,20.0,100,-99.99,,,-99.99,,2013-05-20 11:12:00,
2013-05-20 07:21:00,57.0,57.0,30.09,SSW,210,16.0,20.0,100,-99.99,,,-99.99,,2013-05-20 11:21:00,
2013-05-20 07:32:00,57.0,57.0,30.09,SSW,210,16.0,20.0,100,-99.99,,,-99.99,,2013-05-20 11:32:00,
2013-05-20 07:41:00,57.0,57.0,30.09,SSW,210,16.0,20.0,100,-99.99,,,-99.99,,2013-05-20 11:41:00,
2013-05-20 07:50:00,56.0,56.0,30.09,SW,220,16.0,18.0,100,-99.99,,,-99.99,,2013-05-20 11:50:00,
2013-05-20 08:21:00,56.0,56.0,30.09,SW,220,16.0,18.0,100,-99.99,,,-99.99,,2013-05-20 12:21:00,
2013-05-20 08:31:00,56.0,56.0,30.09,SW,220,16.0,18.0,100,-99.99,,,-99.99,,2013-05-20 12:31:00,
2013-05-20 08:41:00,56.0,56.0,30.09,SW,220,16.0,18.0,100,-99.99,,,-99.99,,2013-05-20 12:41:00,
2013-05-20 08:50:00,56.0,56.0,30.08,SW,230,13.0,16.0,100,-99.99,,,-99.99,,2013-05-20 12:50:00,
2013-05-20 09:11:00,56.0,56.0,30.08,SW,230,13.0,16.0,100,-99.99,,,-99.99,,2013-05-20 13:11:00,
2013-05-20 09:21:00,56.0,56.0,30.08,SW,230,13.0,16.0,100,-99.99,,,-99.99,,2013-05-20 13:21:00,
2013-05-20 09:31:00,56.0,56.0,30.08,SW,230,13.0,16.0,100,-99.99,,,-99.99,,2013-05-20 13:31:00,
2013-05-20 09:41:00,56.0,56.0,30.08,SW,230,13.0,16.0,100,-99.99,,,-99.99,,2013-05-20 13:41:00,
2013-05-20 09:50:00,57.0,57.0,30.07,WSW,240,13.0,16.0,100,-99.99,,,-99.99,,2013-05-20 13:50:00,
2013-05-20 10:11:00,57.0,57.0,30.07,WSW,240,13.0,16.0,100,-99.99,,,-99.99,,2013-05-20 14:11:00,
2013-05-20 10:21:00,57.0,57.0,30.07,WSW,240,13.0,16.0,100,-99.99,,,-99.99,,2013-05-20 14:21:00,
2013-05-20 10:31:00,57.0,57.0,30.07,WSW,240,13.0,16.0,100,-99.99,,,-99.99,,2013-05-20 14:31:00,
2013-05-20 10:41:00,57.0,57.0,30.07,WSW,240,13.0,16.0,100,-99.99,,,-99.99,,2013-05-20 14:41:00,
2013-05-20 10:50:00,56.0,56.0,30.05,SW,220,16.0,20.0,100,-99.99,,,-99.99,,2013-05-20 14:50:00,
2013-05-20 11:11:00,56.0,56.0,30.05,SW,220,16.0,20.0,100,-99.99,,,-99.99,,2013-05-20 15:11:00,
2013-05-20 11:21:00,56.0,56.0,30.05,SW,220,16.0,20.0,100,-99.99,,,-99.99,,2013-05-20 15:21:00,
2013-05-20 11:33:00,56.0,56.0,30.05,SW,220,16.0,20.0,100,-99.99,,,-99.99,,2013-05-20 15:33:00,
2013-05-20 11:42:00,56.0,56.0,30.05,SW,220,16.0,20.0,100,-99.99,,,-99.99,,2013-05-20 15:42:00,
2013-05-20 11:50:00,56.0,56.0,30.04,SW,230,13.0,16.0,100,-99.99,,,-99.99,,2013-05-20 15:50:00,
2013-05-20 12:12:00,56.0,56.0,30.04,SW,230,13.0,16.0,100,-99.99,,,-99.99,,2013-05-20 16:12:00,
2013-05-20 12:22:00,56.0,56.0,30.04,SW,230,13.0,16.0,100,-99.99,,,-99.99,,2013-05-20 16:22:00,
2013-05-20 12:32:00,56.0,56.0,30.04,SW,230,13.0,16.0,100,-99.99,,,-99.99,,2013-05-20 16:32:00,
2013-05-20 12:42:00,56.0,56.0,30.04,SW,230,13.0,16.0,100,-99.99,,,-99.99,,2013-05-20 16:42:00,
2013-05-20 12:50:00,57.0,57.0,30.01,SW,230,16.0,18.0,100,-99.99,,,-99.99,,2013-05-20 16:50:00,
2013-05-20 13:11:00,57.0,57.0,30.01,SW,230,16.0,18.0,100,-99.99,,,-99.99,,2013-05-20 17:11:00,
2013-05-20 13:22:00,57.0,57.0,30.01,SW,230,16.0,18.0,100,-99.99,,,-99.99,,2013-05-20 17:22:00,
2013-05-20 13:32:00,57.0,57.0,30.01,SW,230,16.0,18.0,100,-99.99,,,-99.99,,2013-05-20 17:32:00,
2013-05-20 13:44:00,57.0,57.0,30.01,SW,230,16.0,18.0,100,-99.99,,,-99.99,,2013-05-20 17:44:00,
2013-05-20 13:50:00,57.0,57.0,29.99,WSW,240,18.0,20.0,100,-99.99,,,-99.99,,2013-05-20 17:50:00,
2013-05-20 14:12:00,57.0,57.0,29.99,WSW,240,18.0,20.0,100,-99.99,,,-99.99,,2013-05-20 18:12:00,
2013-05-20 14:23:00,57.0,57.0,29.99,WSW,240,18.0,20.0,100,-99.99,,,-99.99,,2013-05-20 18:23:00,
2013-05-20 14:32:00,57.0,57.0,29.99,WSW,240,18.0,20.0,100,-99.99,,,-99.99,,2013-05-20 18:32:00,
2013-05-20 14:41:00,57.0,57.0,29.99,WSW,240,18.0,20.0,100,-99.99,,,-99.99,,2013-05-20 18:41:00,
2013-05-20 14:50:00,57.0,57.0,29.97,SW,230,18.0,22.0,100,-99.99,,,-99.99,,2013-05-20 18:50:00,
2013-05-20 15:11:00,57.0,57.0,29.97,SW,230,18.0,22.0,100,-99.99,,,-99.99,,2013-05-20 19:11:00,
2013-05-20 15:21:00,57.0,57.0,29.97,SW,230,18.0,22.0,100,-99.99,,,-99.99,,2013-05-20 19:21:00,
2013-05-20 15:32:00,57.0,57.0,29.97,SW,230,18.0,22.0,100,-99.99,,,-99.99,,2013-05-20 19:32:00,
2013-05-20 15:41:00,57.0,57.0,29.97,SW,230,18.0,22.0,100,-99.99,,,-99.99,,2013-05-20 19:41:00,
2013-05-20 15:50:00,57.0,57.0,29.96,WSW,240,20.0,25.0,100,-99.99,,,-99.99,,2013-05-20 19:50:00,
2013-05-20 16:11:00,57.0,57.0,29.96,WSW,240,20.0,25.0,100,-99.99,,,-99.99,,2013-05-20 20:11:00,
2013-05-20 16:21:00,57.0,57.0,29.96,WSW,240,20.0,25.0,100,-99.99,,,-99.99,,2013-05-20 20:21:00,
2013-05-20 16:32:00,57.0,57.0,29.96,WSW,240,20.0,25.0,100,-99.99,,,-99.99,,2013-05-20 20:32:00,
2013-05-20 16:42:00,57.0,57.0,29.96,WSW,240,20.0,25.0,100,-99.99,,,-99.99,,2013-05-20 20:42:00,
2013-05-20 16:50:00,58.0,58.0,29.96,WSW,240,20.0,22.0,100,-99.99,,,-99.99,,2013-05-20 20:50:00,
2013-05-20 17:11:00,58.0,58.0,29.96,WSW,240,20.0,22.0,100,-99.99,,,-99.99,,2013-05-20 21:11:00,
2013-05-20 17:21:00,58.0,58.0,29.96,WSW,240,20.0,22.0,100,-99.99,,,-99.99,,2013-05-20 21:21:00,
2013-05-20 17:32:00,58.0,58.0,29.96,WSW,240,20.0,22.0,100,-99.99,,,-99.99,,2013-05-20 21:32:00,
2013-05-20 17:42:00,58.0,58.0,29.96,WSW,240,20.0,22.0,100,-99.99,,,-99.99,,2013-05-20 21:42:00,
2013-05-20 17:50:00,56.0,56.0,29.95,WSW,240,20.0,25.0,100,-99.99,,,-99.99,,2013-05-20 21:50:00,
2013-05-20 18:12:00,56.0,56.0,29.95,WSW,240,20.0,25.0,100,-99.99,,,-99.99,,2013-05-20 22:12:00,
2013-05-20 18:22:00,56.0,56.0,29.95,WSW,240,20.0,25.0,100,-99.99,,,-99.99,,2013-05-20 22:22:00,
2013-05-20 18:33:00,56.0,56.0,29.95,WSW,240,20.0,25.0,100,-99.99,,,-99.99,,2013-05-20 22:33:00,
2013-05-20 18:41:00,56.0,56.0,29.95,WSW,240,20.0,25.0,100,-99.99,,,-99.99,,2013-05-20 22:41:00,
2013-05-20 18:50:00,56.0,56.0,29.96,WSW,250,16.0,20.0,100,-99.99,,,-99.99,,2013-05-20 22:50:00,
2013-05-20 19:12:00,56.0,56.0,29.96,WSW,250,16.0,20.0,100,-99.99,,,-99.99,,2013-05-20 23:12:00,
2013-05-20 19:21:00,56.0,56.0,29.96,WSW,250,16.0,20.0,100,-99.99,,,-99.99,,2013-05-20 23:21:00,
2013-05-20 19:32:00,56.0,56.0,29.96,WSW,250,16.0,20.0,100,-99.99,,,-99.99,,2013-05-20 23:32:00,
2013-05-20 19:41:00,56.0,56.0,29.96,WSW,250,16.0,20.0,100,-99.99,,,-99.99,,2013-05-20 23:41:00,
2013-05-20 19:50:00,57.0,57.0,29.96,WSW,240,18.0,22.0,100,-99.99,,,-99.99,,2013-05-20 23:50:00,
2013-05-20 20:11:00,57.0,57.0,29.96,WSW,240,18.0,22.0,100,-99.99,,,-99.99,,2013-05-21 00:11:00,
2013-05-20 20:21:00,57.0,57.0,29.96,WSW,240,18.0,22.0,100,-99.99,,,-99.99,,2013-05-21 00:21:00,
2013-05-20 20:31:00,57.0,57.0,29.96,WSW,240,18.0,22.0,100,-99.99,,,-99.99,,2013-05-21 00:31:00,
2013-05-20 20:41:00,57.0,57.0,29.96,WSW,240,18.0,22.0,100,-99.99,,,-99.99,,2013-05-21 00:41:00,
2013-05-20 20:50:00,57.0,57.0,29.96,WSW,240,20.0,22.0,100,-99.99,,,-99.99,,2013-05-21 00:50:00,
2013-05-20 21:11:00,57.0,57.0,29.96,WSW,240,20.0,22.0,100,-99.99,,,-99.99,,2013-05-21 01:11:00,
2013-05-20 21:21:00,57.0,57.0,29.96,WSW,240,20.0,22.0,100,-99.99,,,-99.99,,2013-05-21 01:21:00,
2013-05-20 21:32:00,57.0,57.0,29.96,WSW,240,20.0,22.0,100,-99.99,,,-99.99,,2013-05-21 01:32:00,
2013-05-20 21:42:00,57.0,57.0,29.96,WSW,240,20.0,22.0,100,-99.99,,,-99.99,,2013-05-21 01:42:00,
2013-05-20 21:50:00,57.0,57.0,29.98,WSW,250,18.0,20.0,100,-99.99,,,-99.99,,2013-05-21 01:50:00,
2013-05-20 22:11:00,57.0,57.0,29.98,WSW,250,18.0,20.0,100,-99.99,,,-99.99,,2013-05-21 02:11:00,
2013-05-20 22:21:00,57.0,57.0,29.98,WSW,250,18.0,20.0,100,-99.99,,,-99.99,,2013-05-21 02:21:00,
2013-05-20 22:32:00,57.0,57.0,29.98,WSW,250,18.0,20.0,100,-99.99,,,-99.99,,2013-05-21 02:32:00,
2013-05-20 22:41:00,57.0,57.0,29.98,WSW,250,18.0,20.0,100,-99.99,,,-99.99,,2013-05-21 02:41:00,
2013-05-20 22:50:00,57.0,57.0,29.97,WSW,250,18.0,20.0,100,-99.99,,,-99.99,,2013-05-21 02:50:00,
2013-05-20 23:11:00,57.0,57.0,29.97,WSW,250,18.0,20.0,100,-99.99,,,-99.99,,2013-05-21 03:11:00,
2013-05-20 23:21:00,57.0,57.0,29.97,WSW,250,18.0,20.0,100,-99.99,,,-99.99,,2013-05-21 03:21:00,
2013-05-20 23:33:00,57.0,57.0,29.97,WSW,250,18.0,20.0,100,-99.99,,,-99.99,,2013-05-21 03:33:00,
2013-05-20 23:42:00,57.0,57.0,29.97,WSW,250,18.0,20.0,100,-99.99,,,-99.99,,2013-05-21 03:42:00,
2013-05-20 23:50:00,57.0,57.0,29.98,SW,220,4.0,4.0,100,-99.99,,,-99.99,,2013-05-21 03:50:00,